GW5930 Weather Reports


time (UTC)temp
F
wind
direction
speed
knots
gust
knots
rain 1hr
in
rain 24hr
in
rain mn
in
humidity
%
barometer
mb
20260906173615 91 147 2.6 7.0 0.00 0.00 0.00 62 1011.9
20260906173110 91 257 1.7 5.2 0.00 0.00 0.00 61 1011.9
20260906172609 91 242 5.2 6.1 0.00 0.00 0.00 61 1011.8
20260906172105 90 129 3.5 5.2 0.00 0.00 0.00 63 1011.8
20260906171604 91 162 3.5 3.5 0.00 0.00 0.00 63 1011.8
20260906171100 90 95 1.7 3.5 0.00 0.00 0.00 62 1012.0
20260906170556 89 284 1.7 3.5 0.00 0.00 0.00 63 1011.9
20260906170055 88 310 0.0 4.3 0.00 0.00 0.00 67 1012.0
20260906165553 88 269 6.1 7.8 0.00 0.00 0.00 66 1012.1
20260906165052 88 306 7.0 7.8 0.00 0.00 0.00 67 1012.3
20260906164552 88 297 5.2 7.0 0.00 0.00 0.00 67 1012.3
20260906164048 90 247 5.2 9.6 0.00 0.00 0.00 65 1012.6
20260906163543 88 238 3.5 6.1 0.00 0.00 0.00 69 1012.6
20260906163038 88 255 3.5 6.1 0.00 0.00 0.00 70 1012.6
20260906162536 89 276 3.5 6.1 0.00 0.00 0.00 67 1012.6
20260906162031 90 310 1.7 2.6 0.00 0.00 0.00 67 1012.6
20260906161526 88 240 2.6 3.5 0.00 0.00 0.00 69 1012.5
20260906161024 86 238 1.7 4.3 0.00 0.00 0.00 73 1012.6
20260906160524 87 261 5.2 5.2 0.00 0.00 0.00 72 1012.8
20260906160023 88 234 0.9 3.5 0.00 0.00 0.00 72 1012.7
20260906155520 88 203 1.7 5.2 0.00 0.00 0.00 72 1012.8
20260906155016 87 259 3.5 6.1 0.00 0.00 0.00 74 1012.9
20260906154512 87 229 1.7 3.5 0.00 0.00 0.00 73 1012.8
20260906154010 87 235 0.0 5.2 0.00 0.00 0.00 74 1012.9
20260906153509 85 316 1.7 6.1 0.00 0.00 0.00 76 1012.8
20260906153005 86 319 6.1 6.1 0.00 0.00 0.00 76 1012.9
20260906152504 86 329 5.2 5.2 0.00 0.00 0.00 76 1013.1
20260906152004 85 277 2.6 5.2 0.00 0.00 0.00 76 1013.0
20260906151500 85 288 1.7 3.5 0.00 0.00 0.00 80 1013.1
20260906150955 84 282 4.3 4.3 0.00 0.00 0.00 80 1013.0
20260906150450 86 288 6.1 7.0 0.00 0.00 0.00 77 1013.0
20260906145949 85 173 0.0 1.7 0.00 0.00 0.00 82 1013.2
20260906145444 84 355 1.7 4.3 0.00 0.00 0.00 83 1013.1
20260906144943 83 248 3.5 3.5 0.00 0.00 0.00 84 1012.9
20260906144438 83 264 5.2 5.2 0.00 0.00 0.00 84 1013.1
20260906143934 84 264 2.6 4.3 0.00 0.00 0.00 85 1013.0
20260906143429 84 312 2.6 3.5 0.00 0.00 0.00 85 1013.1
20260906142925 82 293 2.6 4.3 0.00 0.00 0.00 87 1013.0
20260906142425 82 264 2.6 2.6 0.00 0.00 0.00 90 1013.2
20260906141920 80 236 1.7 3.5 0.00 0.00 0.00 92 1013.1
20260906141419 80 277 3.5 5.2 0.00 0.00 0.00 91 1012.9
20260906140914 80 218 0.9 4.3 0.00 0.00 0.00 92 1012.9
20260906140409 80 261 2.6 5.2 0.00 0.00 0.00 92 1013.0
20260906135907 80 236 3.5 4.3 0.00 0.00 0.00 93 1013.0
20260906135406 80 266 2.6 4.3 0.00 0.00 0.00 92 1012.8
20260906134902 80 288 1.7 3.5 0.00 0.00 0.00 92 1012.8
20260906134357 80 273 1.7 3.5 0.00 0.00 0.00 93 1012.8
20260906133852 78 271 1.7 3.5 0.00 0.00 0.00 96 1013.0
20260906133348 78 253 1.7 3.5 0.00 0.00 0.00 96 1012.9
20260906132843 78 243 1.7 1.7 0.00 0.00 0.00 98 1013.0
20260906132338 77 240 1.7 2.6 0.00 0.00 0.00 98 1013.2
20260906131834 77 294 1.7 2.6 0.00 0.00 0.00 98 1013.0
20260906131329 77 278 2.6 3.5 0.00 0.00 0.00 99 1013.0
20260906130825 76 301 0.0 2.6 0.00 0.00 0.00 99 1013.3
20260906130324 76 241 0.9 0.9 0.00 0.00 0.00 99 1012.9
20260906125823 75 276 1.7 1.7 0.00 0.00 0.00 99 1013.0
20260906125320 75 265 0.0 2.6 0.00 0.00 0.00 99 1012.8
20260906124816 74 242 2.6 2.6 0.00 0.00 0.00 99 1012.8
20260906124312 74 256 2.6 2.6 0.00 0.00 0.00 99 1012.9
20260906123810 74 282 1.7 2.6 0.00 0.00 0.00 99 1012.9
20260906123305 73 286 1.7 2.6 0.00 0.00 0.00 99 1013.0
20260906122805 73 278 1.7 2.6 0.00 0.00 0.00 99 1013.0
20260906122300 73 287 1.7 1.7 0.00 0.00 0.00 99 1012.8
20260906121757 73 267 1.7 3.5 0.00 0.00 0.00 99 1012.8
20260906121253 73 265 0.9 1.7 0.00 0.00 0.00 99 1013.0
20260906120749 73 259 0.9 1.7 0.00 0.00 0.00 99 1012.9
20260906120245 72 225 0.0 0.9 0.00 0.00 0.00 99 1012.8
20260906115741 72 241 0.0 0.9 0.00 0.00 0.00 99 1012.7
20260906115236 72 220 0.9 1.7 0.00 0.00 0.00 99 1012.7
20260906114734 72 229 0.0 0.0 0.00 0.00 0.00 99 1012.8
20260906114230 72 221 0.0 0.9 0.00 0.00 0.00 99 1012.6
20260906113725 72 242 0.0 0.9 0.00 0.00 0.00 99 1012.9
20260906113224 72 297 0.0 0.0 0.00 0.00 0.00 99 1012.7
20260906112724 71 310 0.0 0.9 0.00 0.00 0.00 99 1012.7
20260906112221 71 322 0.0 0.0 0.00 0.00 0.00 99 1012.8
20260906111721 71 242 0.0 0.9 0.00 0.00 0.00 99 1012.6
20260906111215 71 224 0.0 0.0 0.00 0.00 0.00 99 1012.6
20260906110710 71 205 0.0 0.0 0.00 0.00 0.00 99 1012.4
20260906110206 71 242 0.0 0.0 0.00 0.00 0.00 99 1012.6
20260906105705 71 147 0.0 0.0 0.00 0.00 0.00 99 1012.6
20260906105202 71 185 0.0 0.9 0.00 0.00 0.00 99 1012.3
20260906104701 71 206 0.0 0.9 0.00 0.00 0.00 99 1012.4
20260906104200 71 235 0.0 0.0 0.00 0.00 0.00 99 1012.1
20260906103658 71 224 0.0 0.9 0.00 0.00 0.00 99 1012.1
20260906103153 71 322 0.0 0.0 0.00 0.00 0.00 99 1012.1
20260906102649 71 89 0.0 0.9 0.00 0.00 0.00 99 1012.1
20260906102148 71 359 1.7 1.7 0.00 0.00 0.00 99 1012.0
20260906101648 71 343 0.9 2.6 0.00 0.00 0.00 99 1012.0
20260906101142 71 271 1.7 1.7 0.00 0.00 0.00 99 1012.0
20260906100638 71 263 1.7 1.7 0.00 0.00 0.00 99 1011.8
20260906100134 71 261 0.9 1.7 0.00 0.00 0.00 99 1012.1
20260906095634 71 235 0.0 0.0 0.00 0.00 0.00 99 1011.8
20260906095129 71 269 0.0 0.9 0.00 0.00 0.00 99 1011.8
20260906094628 71 269 0.0 0.9 0.00 0.00 0.00 99 1011.7
20260906094124 71 297 0.0 0.9 0.00 0.00 0.00 99 1011.8
20260906093620 71 202 0.0 0.0 0.00 0.00 0.00 99 1011.7
20260906093120 71 209 0.0 0.9 0.00 0.00 0.00 99 1011.6
20260906092615 71 257 1.7 1.7 0.00 0.00 0.00 99 1011.6
20260906092110 71 269 0.0 0.9 0.00 0.00 0.00 99 1011.5
20260906091606 71 279 0.9 0.9 0.00 0.00 0.00 99 1011.4
20260906091103 71 290 0.0 1.7 0.00 0.00 0.00 99 1011.5
20260906090602 71 309 0.0 0.0 0.00 0.00 0.00 99 1011.3
20260906085601 71 217 0.0 0.0 0.00 0.00 0.00 99 1011.4
20260906085056 71 205 0.0 0.0 0.00 0.00 0.00 99 1011.4
20260906084551 71 196 0.0 0.9 0.00 0.00 0.00 99 1011.6
20260906084049 71 322 0.0 0.0 0.00 0.00 0.00 99 1011.3
20260906083545 71 217 0.0 0.0 0.00 0.00 0.00 99 1011.3
20260906083044 71 212 0.0 0.9 0.00 0.00 0.00 99 1011.4
20260906082540 71 235 0.0 0.0 0.00 0.00 0.00 99 1011.4
20260906082036 71 235 0.0 0.0 0.00 0.00 0.00 99 1011.4
20260906081532 71 246 0.0 0.9 0.00 0.00 0.00 99 1011.5
20260906081027 71 186 0.0 0.0 0.00 0.00 0.00 99 1011.3
20260906080523 72 210 0.0 1.7 0.00 0.00 0.00 99 1011.5
20260906080019 72 297 0.0 0.0 0.00 0.00 0.00 99 1011.4
20260906075513 72 202 0.0 0.0 0.00 0.00 0.00 99 1011.5
20260906075008 72 229 0.0 0.9 0.00 0.00 0.00 99 1011.4
20260906074503 72 217 0.0 0.0 0.00 0.00 0.00 99 1011.6
20260906074001 72 288 0.0 0.9 0.00 0.00 0.00 99 1011.6
20260906073455 72 217 0.0 0.9 0.00 0.00 0.00 99 1011.6
20260906072952 72 206 0.9 1.7 0.00 0.00 0.00 99 1011.6
20260906072447 72 309 0.0 0.9 0.00 0.00 0.00 99 1011.7
20260906071943 72 217 0.0 0.0 0.00 0.00 0.00 99 1011.8
20260906071439 72 217 0.0 0.0 0.00 0.00 0.00 99 1011.6
20260906070935 72 230 0.9 0.9 0.00 0.00 0.00 99 1011.6
20260906070430 72 329 0.0 0.0 0.00 0.00 0.00 99 1011.6
20260906065926 73 230 0.0 0.0 0.00 0.00 0.00 99 1011.6
20260906065420 73 340 0.9 1.7 0.00 0.00 0.00 99 1011.6
20260906064916 73 217 0.0 0.9 0.00 0.00 0.00 99 1011.7
20260906064413 73 209 1.7 1.7 0.00 0.00 0.00 99 1011.6
20260906063912 73 164 0.0 0.0 0.00 0.00 0.00 99 1011.6
20260906063407 73 209 0.0 1.7 0.00 0.00 0.00 99 1011.6
20260906062902 73 240 0.0 1.7 0.00 0.00 0.00 99 1011.5
20260906062401 73 211 0.9 1.7 0.00 0.00 0.00 99 1011.6
20260906061857 73 215 1.7 1.7 0.00 0.00 0.00 99 1011.6
20260906061353 73 244 0.9 1.7 0.00 0.00 0.00 99 1011.9
20260906060848 73 337 1.7 1.7 0.00 0.00 0.00 99 1012.0
20260906060346 73 0 2.6 3.5 0.00 0.00 0.00 99 1012.0
20260906055841 73 316 0.0 1.7 0.00 0.00 0.00 99 1012.1
20260906055337 73 316 0.9 1.7 0.00 0.00 0.00 99 1012.1
20260906054832 73 303 1.7 2.6 0.00 0.00 0.00 99 1012.1
20260906054326 73 347 2.6 3.5 0.00 0.00 0.00 99 1012.1
20260906053823 73 339 1.7 1.7 0.00 0.00 0.00 99 1012.1
20260906053319 73 235 0.0 0.9 0.00 0.00 0.00 99 1011.8
20260906052814 73 199 0.9 1.7 0.00 0.00 0.00 99 1011.9
20260906052310 74 242 0.0 0.0 0.00 0.00 0.00 99 1012.2
20260906051807 74 224 0.0 0.9 0.00 0.00 0.00 99 1012.2
20260906051306 74 220 0.9 0.9 0.00 0.00 0.00 99 1012.1
20260906050802 74 297 0.0 0.0 0.00 0.00 0.00 99 1012.2
20260906050257 74 309 0.0 1.7 0.00 0.00 0.00 99 1012.3
20260906045755 74 332 0.9 1.7 0.00 0.00 0.00 99 1012.3
20260906045250 74 293 0.9 0.9 0.00 0.00 0.00 98 1012.2
20260906044746 74 142 0.0 0.0 0.00 0.00 0.00 98 1012.2
20260906044241 74 242 0.0 1.7 0.00 0.00 0.00 98 1012.2
20260906043737 74 254 3.5 4.3 0.00 0.00 0.00 98 1012.2
20260906043233 74 267 1.7 2.6 0.00 0.00 0.00 98 1012.3
20260906042732 74 265 1.7 1.7 0.00 0.00 0.00 98 1012.1
20260906042231 75 244 0.9 1.7 0.00 0.00 0.00 98 1012.4
20260906041727 75 252 0.0 0.9 0.00 0.00 0.00 98 1012.4
20260906041222 75 299 1.7 1.7 0.00 0.00 0.00 98 1012.4
20260906040718 75 245 1.7 1.7 0.00 0.00 0.00 98 1012.4
20260906040213 75 245 0.0 1.7 0.00 0.00 0.00 98 1012.3
20260906035709 75 241 0.0 1.7 0.00 0.00 0.00 98 1012.3
20260906035204 75 266 0.9 1.7 0.00 0.00 0.00 97 1012.3
20260906034704 75 230 0.0 0.9 0.00 0.00 0.00 97 1012.6
20260906034159 76 250 0.9 1.7 0.00 0.00 0.00 97 1012.7
20260906033655 76 227 0.9 1.7 0.00 0.00 0.00 97 1012.9
20260906033156 76 242 0.0 0.9 0.00 0.00 0.00 97 1012.9
20260906032652 76 282 0.0 1.7 0.00 0.00 0.00 97 1013.1
20260906032152 76 239 1.7 1.7 0.00 0.00 0.00 96 1013.0
20260906031647 76 275 1.7 2.6 0.00 0.00 0.00 97 1013.0
20260906031142 76 265 0.0 1.7 0.00 0.00 0.00 97 1013.1
20260906030642 76 323 0.9 2.6 0.00 0.00 0.00 97 1013.1
20260906030137 76 346 1.7 1.7 0.00 0.00 0.00 97 1012.9
20260906025636 76 267 0.9 1.7 0.00 0.00 0.00 97 1012.7
20260906025136 76 236 1.7 1.7 0.00 0.00 0.00 97 1012.7
20260906024631 76 239 0.9 1.7 0.00 0.00 0.00 97 1012.7
20260906024130 76 326 0.9 1.7 0.00 0.00 0.00 97 1012.7
20260906023627 76 246 0.0 0.9 0.00 0.00 0.00 97 1012.5
20260906023126 76 333 0.0 0.9 0.00 0.00 0.00 97 1012.6
20260906022622 76 246 0.0 0.9 0.00 0.00 0.00 96 1012.4
20260906022117 76 218 0.0 1.7 0.00 0.00 0.00 96 1012.4
20260906021613 76 217 0.0 0.0 0.00 0.00 0.00 96 1012.4
20260906021111 76 244 0.0 0.0 0.00 0.00 0.00 96 1012.4
20260906020611 76 231 1.7 1.7 0.00 0.00 0.00 95 1012.1
20260906020106 76 184 0.0 0.9 0.00 0.00 0.00 95 1012.3
20260906015605 76 212 0.0 0.9 0.00 0.00 0.00 94 1012.0
20260906015104 77 223 2.6 2.6 0.00 0.00 0.00 94 1012.0
20260906014600 77 217 1.7 1.7 0.00 0.00 0.00 93 1011.9
20260906014056 77 222 0.9 1.7 0.00 0.00 0.00 93 1012.0
20260906013551 77 321 0.0 1.7 0.00 0.00 0.00 93 1011.9
20260906013046 77 228 0.0 1.7 0.00 0.00 0.00 92 1011.7
20260906012541 77 212 0.9 1.7 0.00 0.00 0.00 92 1011.7
20260906012040 77 154 0.0 0.0 0.00 0.00 0.00 92 1011.5
20260906011537 78 220 0.0 1.7 0.00 0.00 0.00 91 1011.4
20260906011036 78 225 0.9 1.7 0.00 0.00 0.00 90 1011.3
20260906010532 78 224 1.7 2.6 0.00 0.00 0.00 90 1011.3
20260906010028 78 221 0.0 1.7 0.00 0.00 0.00 89 1011.3
20260906005527 79 261 0.0 1.7 0.00 0.00 0.00 88 1011.1
20260906005027 79 283 0.0 1.7 0.00 0.00 0.00 88 1011.1
20260906004526 79 274 1.7 1.7 0.00 0.00 0.00 87 1011.1
20260906004022 80 272 0.9 2.6 0.00 0.00 0.00 87 1011.0
20260906003517 80 264 1.7 3.5 0.00 0.00 0.00 86 1010.9
20260906003013 80 287 1.7 1.7 0.00 0.00 0.00 85 1011.1
20260906002513 80 262 1.7 4.3 0.00 0.00 0.00 85 1011.1
20260906002008 80 243 0.9 4.3 0.00 0.00 0.00 85 1011.0
20260906001503 81 248 1.7 5.2 0.00 0.00 0.00 84 1011.0
20260906000957 81 244 1.7 3.5 0.00 0.00 0.00 83 1011.1
20260906000455 82 251 1.7 1.7 0.00 0.00 0.00 83 1011.2
20260905235948 82 217 0.9 2.6 0.00 0.00 0.00 82 1011.0
20260905235448 83 242 0.9 1.7 0.00 0.00 0.00 81 1011.0
20260905234943 83 302 1.7 2.6 0.00 0.00 0.00 79 1011.1
20260905234439 83 264 2.6 3.5 0.00 0.00 0.00 78 1011.1
20260905233938 84 260 1.7 2.6 0.00 0.00 0.00 76 1011.2
20260905233434 85 242 1.7 3.5 0.00 0.00 0.00 74 1011.0
20260905232932 86 250 2.6 3.5 0.00 0.00 0.00 73 1011.1
20260905232428 86 256 3.5 4.3 0.00 0.00 0.00 71 1010.9
20260905231924 87 244 2.6 4.3 0.00 0.00 0.00 71 1011.1
20260905231420 88 231 4.3 5.2 0.00 0.00 0.00 68 1011.1
20260905230916 89 247 3.5 3.5 0.00 0.00 0.00 67 1011.1
20260905230414 87 230 2.6 3.5 0.00 0.00 0.00 69 1011.0
20260905225913 88 241 3.5 7.8 0.00 0.00 0.00 69 1011.0
20260905225408 87 244 2.6 3.5 0.00 0.00 0.00 69 1011.1
20260905224903 88 268 5.2 5.2 0.00 0.00 0.00 66 1011.1
20260905224359 87 250 3.5 3.5 0.00 0.00 0.00 70 1011.2
20260905223853 87 264 4.3 4.3 0.00 0.00 0.00 72 1011.1
20260905223352 87 253 3.5 5.2 0.00 0.00 0.00 73 1011.2
20260905222851 87 266 3.5 5.2 0.00 0.00 0.00 72 1011.2
20260905222350 87 248 0.9 7.8 0.00 0.00 0.00 74 1011.2
20260905221846 87 264 5.2 5.2 0.00 0.00 0.00 73 1011.2
20260905221343 86 271 4.3 6.1 0.00 0.00 0.00 76 1011.3
20260905220838 85 272 4.3 7.8 0.00 0.00 0.00 77 1011.3
20260905220335 85 264 6.1 8.7 0.00 0.00 0.00 76 1011.5
20260905215834 86 253 5.2 5.2 0.00 0.00 0.00 77 1011.7
20260905215330 85 220 4.3 7.8 0.00 0.00 0.00 80 1011.7
20260905214826 85 239 3.5 7.0 0.00 0.00 0.00 80 1011.9
20260905214321 85 205 4.3 7.0 0.00 0.00 0.00 82 1011.6
20260905213816 84 259 3.5 4.3 0.00 0.00 0.00 84 1011.7
20260905213312 84 256 2.6 4.3 0.00 0.00 0.00 83 1011.5
20260905212807 84 246 2.6 4.3 0.00 0.00 0.00 84 1011.5
20260905212306 84 242 1.7 4.3 0.00 0.00 0.00 83 1011.4
20260905211801 85 231 1.7 4.3 0.00 0.00 0.00 81 1011.3
20260905211256 85 198 4.3 4.3 0.00 0.00 0.00 78 1011.4
20260905210753 86 251 4.3 6.1 0.00 0.00 0.00 77 1011.5
20260905210252 85 300 3.5 5.2 0.00 0.00 0.00 78 1011.4
20260905205751 85 288 2.6 7.0 0.00 0.00 0.00 79 1011.5
20260905205246 85 272 5.2 7.8 0.00 0.00 0.00 78 1011.7
20260905204745 85 275 4.3 7.8 0.00 0.00 0.00 80 1011.7
20260905204242 86 297 5.2 7.8 0.00 0.00 0.00 78 1011.9
20260905203741 84 303 4.3 7.8 0.00 0.00 0.00 81 1011.8
20260905203236 84 315 8.7 10.4 0.00 0.00 0.00 81 1012.0
20260905202732 84 279 6.1 9.6 0.00 0.00 0.00 83 1011.8
20260905202227 83 291 4.3 7.0 0.00 0.00 0.00 84 1012.0
20260905201722 83 316 7.8 9.6 0.00 0.00 0.00 83 1012.0
20260905201222 83 280 5.2 8.7 0.00 0.00 0.00 81 1011.8
20260905200718 84 275 6.1 9.6 0.00 0.00 0.00 79 1012.1
20260905200213 85 265 3.5 11.3 0.00 0.00 0.00 77 1012.3
20260905195711 87 277 5.2 8.7 0.00 0.00 0.00 73 1012.3
20260905195206 86 275 4.3 7.8 0.00 0.00 0.00 72 1012.4
20260905194702 87 304 5.2 9.6 0.00 0.00 0.00 70 1012.3
20260905194201 89 303 5.2 9.6 0.00 0.00 0.00 67 1012.3
20260905193655 89 341 7.8 10.4 0.00 0.00 0.00 67 1012.4
20260905193151 90 280 7.8 11.3 0.00 0.00 0.00 62 1012.6
20260905192646 88 261 5.2 6.1 0.00 0.00 0.00 65 1012.7
20260905192143 88 287 4.3 7.8 0.00 0.00 0.00 64 1012.9
20260905191642 89 274 6.1 7.8 0.00 0.00 0.00 64 1012.9
20260905191140 88 296 1.7 5.2 0.00 0.00 0.00 64 1012.9
20260905190638 88 314 4.3 9.6 0.00 0.00 0.00 66 1012.9
20260905190132 88 346 3.5 7.0 0.00 0.00 0.00 67 1012.9
20260905185631 87 315 7.8 8.7 0.00 0.00 0.00 67 1012.9
20260905185126 87 313 10.4 12.2 0.00 0.00 0.00 67 1013.0
20260905184626 88 305 7.0 9.6 0.00 0.00 0.00 67 1013.0
20260905184125 87 301 7.0 7.8 0.00 0.00 0.00 68 1012.8
20260905183624 88 282 5.2 5.2 0.00 0.00 0.00 69 1013.1
20260905183120 86 340 2.6 5.2 0.00 0.00 0.00 69 1013.0
20260905182619 86 284 5.2 11.3 0.00 0.00 0.00 69 1013.1
20260905182119 87 277 8.7 11.3 0.00 0.00 0.00 68 1013.2
20260905181620 87 288 3.5 5.2 0.00 0.00 0.00 69 1013.2
20260905181119 87 295 7.8 8.7 0.00 0.00 0.00 69 1013.3
20260905180614 87 291 5.2 5.2 0.00 0.00 0.00 69 1013.2
20260905180109 87 347 2.6 3.5 0.00 0.00 0.00 70 1013.3
20260905175608 86 268 3.5 9.6 0.00 0.00 0.00 70 1013.5
20260905175104 87 293 5.2 8.7 0.00 0.00 0.00 70 1013.6
20260905174600 86 16 1.7 8.7 0.00 0.00 0.00 71 1013.6
20260905174054 87 351 6.1 8.7 0.00 0.00 0.00 70 1013.9